Location: Colebrook
(42.0017°N, 73.0973°W)
Time: 15:32:02
(UTC-05:00)

Vanguard 2 - Pass Details

Date: 30 October 2021
Orbit: 554 x 2936 km, 32.9° (Epoch: 04 December)

Event Time Altitude Azimuth Distance (km) Brightness Sun altitude
Exits shadow 03:30:43 29° 132° (SE) 2,381 10.0 -43.0°
Drops below altitude 10° 03:34:06 10° 117° (ESE) 3,198 11.0 -42.5°
Sets 03:36:27 0° 112° (ESE) 3,909 11.6 -42.1°
